FENGYUN 1C DEB *

Satellite information

Favourite Embed

Satellite Type and Status

DEBRISIN ORBIT

Key statistics

Satellite FENGYUN 1C DEB * at a glance.

Uptime

9717

Days in orbit

Revolutions

≈ 14.4

Per day

Orbit

SSO

Sun Synchronous Orbit

Inclination

99.3

Latest

Satellite identification and parameters

Extended collection of information and parameters for FENGYUN 1C DEB *.

Object identification

Identified? True

Debris? True

Object name: FENGYUN 1C DEB *

International designator: 1999-025FAB

Object number (NORAD): 47001

Object ID (CCSDS): 47001

Country: PEOPLES REPUBLIC OF CHINA (PRC)

Current information (Y/N): Y

RCS size: SMALL

Orbital parameters

Period: 100.105 minutes

Inclination: 99.3068 deg

SMA: 7141.61 km

Apoapsis: 800.078 km

Periapsis: 726.872 km

RAAN: 48.2252 deg

Eccentricy: 0.00512528

Argument of periapsis: 39.7651 deg

Mean anomaly: 320.7273 deg

Mean motion: 14.38495721 rev/day

Mean motion (dot): 0.00003136 rev/day2

B* drag term: 0.0010268009 1/REarth

Two-line elements (TLE)

Creation date: Dec. 16, 2025, 2:19 a.m.

Reference frame: TEME

Reference center: EARTH

Epoch: Dec. 15, 2025, 10:09 p.m. UTC

TLE line 0: 0 FENGYUN 1C DEB *

TLE line 1: 1 47001U 99025FAB 25349.92310540 .00003136 00000-0 10268-2 0 9996

TLE line 2: 2 47001 99.3068 48.2252 0051253 39.7651 320.7273 14.38495721739602

Live tracking on map

Real-time ground track for satellite FENGYUN 1C DEB *.

In-orbit conjunctions

A list of the most updated potential collisions computed for object FENGYUN 1C DEB *.

Target Orbit TCA Probability of collision Miss distance Type
SL-16 DEB LEO 2025-08-23 03:23:00 0.0001151768 71.0 (m) DEBRIS
CZ-6A DEB LEO 2024-12-11 23:18:53 0.0001447469 669.0 (m) DEBRIS

Associated space launch

Chinese polar orbiting meteorological satellite

FENGYUN 1C DEB * was lifted into orbit during the mission ‘Long March 4B | Feng Yun 1C’, on board a Long March 4B space rocket.

The launch took place on May 10, 1999, 1:33 a.m. from Launch Complex 7.

For more information about the launch, click the button.

Launch to space Long March 4B | Feng Yun 1C
Long March 4B | Feng Yun 1C

Agency: N/A

Status: Launch Successful

Launch date: May 10, 1999, 1:33 a.m. UTC

Rocket: Long March 4B

Launch pad: Launch Complex 7

Location: Taiyuan Satellite Launch Center, People's Republic of China

...

Latest news about this satellite

There are no fresh news available about this satellite. Check back as we update our databases every day.


Newsletter sign-up

Weekly statistics, charts and insights to help you stay on top of the space industry.